QPF
0.00 0.00 0.00 0.00 0.00 0.00 0.00 0.00 0.00 0.00 0.00 0.00 0.00 0.00 0.00 0.00 0.00 0.00 0.00 0.00 0.00 0.00 0.00 0.00 0.00 0.00 0.00 0.00 0.00 0.00 0.00 0.00 0.00 0.00 0.00 0.00 0.00 0.00 0.00 0.00 0.00 0.00 0.00 0.00
0.00 0.00 0.00 0.00 0.00 0.00 0.00 0.00 0.00 0.00 0.00 0.00 0.00 0.00 0.00 0.00 0.00 0.00 0.00 0.00 0.00 0.00 0.00 0.00 0.00 0.00 0.00 0.00 0.00 0.00 0.00 0.00 0.00 0.00 0.00 0.00 0.00 0.00 0.00 0.00 0.00 0.00 0.00 0.00
0.00 0.00 0.00 0.00 0.00 0.00 0.00 0.00 0.00 0.00 0.00 0.00 0.00 0.00 0.00 0.00 0.00 0.00 0.00 0.00 0.00 0.00 0.00 0.00 0.00 0.00 0.00 0.00 0.00 0.00 0.00 0.00 0.00 0.00 0.00 0.00 0.00 0.00 0.00 0.00 0.00 0.00 0.00 0.00
0.00 0.00 0.00 0.00 0.00 0.00 0.00 0.00 0.00 0.00 0.00 0.00 0.00 0.00 0.00 0.00 0.00 0.00 0.00 0.00 0.00 0.00 0.00 0.00 0.00 0.00 0.00 0.00 0.00 0.00 0.00 0.00 0.00 0.00 0.00 0.00 0.00 0.00 0.00 0.00 0.00 0.00 0.00 0.00
0.00 0.00 0.00 0.00 0.00 0.00 0.00 0.00 0.00 0.00 0.00 0.00 0.00 0.00 0.00 0.00 0.00 0.00 0.00 0.00 0.00 0.00 0.00 0.00 0.00 0.00 0.00 0.00 0.00 0.00 0.00 0.00 0.00 0.00 0.00 0.00 0.00 0.00 0.00 0.00 0.00 0.00 0.00 0.00
0.00 0.00 0.00 0.00 0.00 0.00 0.00 0.00 0.00 0.00 0.00 0.00 0.00 0.00 0.00 0.00 0.00 0.00 0.00 0.00 0.00 0.00 0.00 0.00 0.00 0.00 0.00 0.00 0.00 0.00 0.00 0.00 0.00 0.00 0.00 0.00 0.00 0.00 0.00 0.00 0.00 0.00 0.00 0.00
0.00 0.00 0.00 0.00 0.00 0.00 0.00 0.00 0.00 0.00 0.00 0.00 0.00 0.00 0.00 0.00 0.00 0.00 0.00 0.00 0.00 0.00 0.00 0.00 0.00 0.00 0.00 0.00 0.00 0.00 0.00 0.00 0.00 0.00 0.00 0.00 0.00 0.00 0.00 0.00 0.00 0.00 0.00 0.00
0.00 0.00 0.00 0.00 0.00 0.00 0.00 0.00 0.00 0.00 0.00 0.00 0.00 0.00 0.00 0.00 0.00 0.00 0.00 0.00 0.00 0.00 0.00 0.00 0.00 0.00 0.00 0.00 0.00 0.00 0.00 0.00 0.00 0.00 0.00 0.00 0.00 0.00 0.00 0.00 0.00 0.00 0.00 0.00
0.00 0.00 0.00 0.00 0.00 0.00 0.00 0.00 0.00 0.00 0.00 0.00 0.00 0.00 0.00 0.00 0.00 0.00 0.00 0.00 0.00 0.00 0.00 0.00 0.00 0.00 0.00 0.00 0.00 0.00 0.00 0.00 0.00 0.00 0.00 0.00 0.00 0.00 0.00 0.00 0.00 0.00 0.00 0.00
0.00 0.00 0.00 0.00 0.00 0.00 0.00 0.00 0.00 0.00 0.00 0.00 0.00 0.00 0.00 0.00 0.00 0.00 0.00 0.00 0.00 0.00 0.00 0.00 0.00 0.00 0.00 0.00 0.00 0.00 0.00 0.00 0.00 0.00 0.00 0.00 0.00 0.00 0.00 0.00 0.00 0.00 0.00 0.00
0.00 0.00 0.00 0.00 0.00 0.00 0.00 0.00 0.00 0.00 0.00 0.00 0.00 0.00 0.00 0.00 0.00 0.00 0.00 0.00 0.00 0.00 0.00 0.00 0.00 0.00 0.00 0.00 0.00 0.00 0.00 0.00 0.00 0.00 0.00 0.00 0.00 0.00 0.00 0.00 0.00 0.00 0.00 0.00
0.00 0.00 0.00 0.00 0.00 0.00 0.00 0.00 0.00 0.00 0.00 0.00 0.00 0.00 0.00 0.00 0.00 0.00 0.00 0.00 0.00 0.00 0.00 0.00 0.00 0.00 0.00 0.00 0.00 0.00 0.00 0.00 0.00 0.00 0.00 0.00 0.00 0.00 0.00 0.00 0.00 0.00 0.00 0.00
0.00 0.00 0.00 0.00 0.00 0.00 0.00 0.00 0.00 0.00 0.00 0.00 0.00 0.00 0.00 0.00 0.00 0.00 0.00 0.00 0.00 0.00 0.00 0.00 0.00 0.00 0.00 0.00 0.00 0.00 0.00 0.00 0.00 0.00 0.00 0.00 0.00 0.00 0.00 0.00 0.00 0.00 0.00 0.00
0.00 0.00 0.00 0.00 0.00 0.00 0.00 0.00 0.00 0.00 0.00 0.00 0.00 0.00 0.00 0.00 0.00 0.00 0.00 0.00 0.00 0.00 0.00 0.00 0.00 0.00 0.00 0.00 0.00 0.00 0.00 0.00 0.00 0.00 0.00 0.00 0.00 0.00 0.00 0.00 0.00 0.00 0.00 0.00
0.00 0.00 0.00 0.00 0.00 0.00 0.00 0.00 0.00 0.00 0.00 0.00 0.00 0.00 0.00 0.00 0.00 0.00 0.00 0.00 0.00 0.00 0.00 0.00 0.00 0.00 0.00 0.00 0.00 0.00 0.00 0.00 0.00 0.00 0.00 0.00 0.00 0.00 0.00 0.00 0.00 0.00 0.00 0.00
0.00 0.00 0.00 0.00 0.00 0.00 0.00 0.00 0.00 0.00 0.00 0.00 0.00 0.00 0.00 0.00 0.00 0.00 0.00 0.00 0.00 0.00 0.00 0.00 0.00 0.00 0.00 0.00 0.00 0.00 0.00 0.00 0.00 0.00 0.00 0.00 0.00 0.00 0.00 0.00 0.00 0.00 0.00 0.00
0.00 0.00 0.00 0.00 0.00 0.00 0.00 0.00 0.00 0.00 0.00 0.00 0.00 0.00 0.00 0.00 0.00 0.00 0.00 0.00 0.00 0.00 0.00 0.00 0.00 0.00 0.00 0.00 0.00 0.00 0.00 0.00 0.00 0.00 0.00 0.00 0.00 0.00 0.00 0.00 0.00 0.00 0.00 0.00
0.00 0.00 0.00 0.00 0.00 0.00 0.00 0.00 0.00 0.00 0.00 0.00 0.00 0.00 0.00 0.00 0.00 0.00 0.00 0.00 0.00 0.00 0.00 0.00 0.00 0.00 0.00 0.00 0.00 0.00 0.00 0.00 0.00 0.00 0.00 0.00 0.00 0.00 0.00 0.00 0.00 0.00 0.00 0.00
0.00 0.00 0.00 0.00 0.00 0.00 0.00 0.00 0.00 0.00 0.00 0.00 0.00 0.00 0.00 0.00 0.00 0.00 0.00 0.00 0.00 0.00 0.00 0.00 0.00 0.00 0.00 0.00 0.00 0.00 0.00 0.00 0.00 0.00 0.00 0.00 0.00 0.00 0.00 0.00 0.00 0.00 0.00 0.00
0.00 0.00 0.00 0.00 0.00 0.00 0.00 0.00 0.00 0.00 0.00 0.00 0.00 0.00 0.00 0.00 0.00 0.00 0.00 0.00 0.00 0.00 0.00 0.00 0.00 0.00 0.00 0.00 0.00 0.00 0.00 0.00 0.00 0.00 0.00 0.00 0.00 0.00 0.00 0.00 0.00 0.00 0.00 0.00
0.00 0.00 0.00 0.00 0.00 0.00 0.00 0.00 0.00 0.00 0.00 0.00 0.00 0.00 0.00 0.00 0.00 0.00 0.00 0.00 0.00 0.00 0.00 0.00 0.00 0.00 0.00 0.00 0.00 0.00 0.00 0.00 0.00 0.00 0.00 0.00 0.00 0.00 0.00 0.00 0.00 0.00 0.00 0.00
0.00 0.00 0.00 0.00 0.00 0.00 0.00 0.00 0.00 0.00 0.00 0.00 0.00 0.00 0.00 0.00 0.00 0.00 0.00 0.00 0.00 0.00 0.00 0.00 0.00 0.00 0.00 0.00 0.00 0.00 0.00 0.00 0.00 0.00 0.00 0.00 0.00 0.00 0.00 0.00 0.00 0.00 0.00 0.00
0.00 0.00 0.00 0.00 0.00 0.00 0.00 0.00 0.00 0.00 0.00 0.00 0.00 0.00 0.00 0.00 0.00 0.00 0.00 0.00 0.00 0.00 0.00 0.00 0.00 0.00 0.00 0.00 0.00 0.00 0.00 0.00 0.00 0.00 0.00 0.00 0.00 0.00 0.00 0.00 0.00 0.00 0.00 0.00
0.00 0.00 0.00 0.00 0.00 0.00 0.00 0.00 0.00 0.00 0.00 0.00 0.00 0.00 0.00 0.00 0.00 0.00 0.00 0.00 0.00 0.00 0.00 0.00 0.00 0.00 0.00 0.00 0.00 0.00 0.00 0.00 0.00 0.00 0.00 0.00 0.00 0.00 0.00 0.00 0.00 0.00 0.00 0.00
0.00 0.00 0.00 0.00 0.00 0.00 0.00 0.00 0.00 0.00 0.00 0.00 0.00 0.00 0.00 0.00 0.00 0.00 0.00 0.00 0.00 0.00 0.00 0.00 0.00 0.00 0.00 0.00 0.00 0.00 0.00 0.00 0.00 0.00 0.00 0.00 0.00 0.00 0.00 0.00 0.00 0.00 0.00 0.00
0.00 0.00 0.00 0.00 0.00 0.00 0.00 0.00 0.00 0.00 0.00 0.00 0.00 0.00 0.00 0.00 0.00 0.00 0.00 0.00 0.00 0.00 0.00 0.00 0.00 0.00 0.00 0.00 0.00 0.00 0.00 0.00 0.00 0.00 0.00 0.00 0.00 0.00 0.00 0.00 0.00 0.00 0.00 0.00
0.01 0.00 0.01 0.01 0.00 0.00 0.00 0.00 0.00 0.00 0.00 0.00 0.00 0.00 0.00 0.00 0.00 0.00 0.00 0.00 0.00 0.00 0.00 0.00 0.00 0.00 0.00 0.00 0.00 0.00 0.00 0.00 0.00 0.00 0.00 0.00 0.00 0.00 0.00 0.00 0.00 0.00 0.00 0.00
MSLP
1014.27 1014.59 1014.88 1015.13 1015.33 1015.45 1015.47 1015.37 1015.14 1014.80 1014.38 1013.91 1013.45 1013.02 1012.67 1012.43 1012.28 1012.22 1012.22 1012.27 1012.32 1012.36 1012.38 1012.38 1012.39 1012.40 1012.45 1012.53 1012.66 1012.82 1013.00 1013.17 1013.33 1013.46 1013.54 1013.57 1013.57 1013.52 1013.45 1013.36 1013.24 1013.10 1012.94 1012.76
1014.28 1014.48 1014.61 1014.68 1014.68 1014.61 1014.48 1014.29 1014.04 1013.75 1013.43 1013.12 1012.83 1012.57 1012.37 1012.22 1012.12 1012.05 1012.01 1011.97 1011.94 1011.90 1011.87 1011.86 1011.88 1011.94 1012.04 1012.19 1012.38 1012.58 1012.78 1012.96 1013.11 1013.21 1013.27 1013.28 1013.27 1013.22 1013.16 1013.08 1012.98 1012.86 1012.71 1012.53
1014.28 1014.35 1014.32 1014.20 1014.01 1013.77 1013.50 1013.22 1012.95 1012.70 1012.48 1012.31 1012.18 1012.08 1012.01 1011.96 1011.91 1011.85 1011.78 1011.70 1011.61 1011.53 1011.47 1011.46 1011.50 1011.59 1011.74 1011.94 1012.15 1012.36 1012.56 1012.71 1012.81 1012.86 1012.87 1012.84 1012.80 1012.73 1012.66 1012.59 1012.50 1012.40 1012.27 1012.10
1014.27 1014.19 1013.98 1013.68 1013.32 1012.92 1012.53 1012.17 1011.87 1011.65 1011.51 1011.45 1011.46 1011.50 1011.56 1011.61 1011.63 1011.61 1011.55 1011.46 1011.36 1011.28 1011.22 1011.22 1011.29 1011.41 1011.59 1011.80 1012.01 1012.20 1012.35 1012.45 1012.48 1012.45 1012.39 1012.30 1012.20 1012.10 1012.01 1011.93 1011.85 1011.76 1011.65 1011.50
1014.18 1013.94 1013.56 1013.09 1012.56 1012.03 1011.53 1011.10 1010.78 1010.58 1010.51 1010.54 1010.66 1010.83 1011.01 1011.16 1011.28 1011.33 1011.32 1011.28 1011.21 1011.16 1011.13 1011.17 1011.26 1011.41 1011.59 1011.80 1011.98 1012.12 1012.21 1012.22 1012.16 1012.05 1011.90 1011.73 1011.57 1011.43 1011.31 1011.21 1011.13 1011.04 1010.93 1010.80
1013.94 1013.53 1013.00 1012.38 1011.72 1011.07 1010.49 1010.01 1009.68 1009.50 1009.48 1009.60 1009.82 1010.09 1010.39 1010.66 1010.87 1011.02 1011.11 1011.14 1011.14 1011.15 1011.19 1011.26 1011.39 1011.55 1011.74 1011.91 1012.05 1012.14 1012.14 1012.07 1011.92 1011.72 1011.49 1011.26 1011.04 1010.84 1010.69 1010.56 1010.45 1010.33 1010.21 1010.08
1013.45 1012.90 1012.24 1011.51 1010.76 1010.04 1009.41 1008.92 1008.59 1008.44 1008.47 1008.66 1008.97 1009.35 1009.75 1010.13 1010.45 1010.71 1010.90 1011.04 1011.14 1011.23 1011.33 1011.46 1011.62 1011.80 1011.97 1012.12 1012.21 1012.23 1012.17 1012.02 1011.81 1011.54 1011.25 1010.96 1010.69 1010.45 1010.25 1010.08 1009.92 1009.77 1009.60 1009.43
1012.68 1012.01 1011.27 1010.48 1009.68 1008.95 1008.33 1007.85 1007.56 1007.46 1007.55 1007.81 1008.19 1008.66 1009.15 1009.63 1010.06 1010.43 1010.73 1010.97 1011.17 1011.35 1011.52 1011.70 1011.89 1012.08 1012.24 1012.36 1012.42 1012.39 1012.28 1012.09 1011.83 1011.53 1011.21 1010.88 1010.58 1010.31 1010.06 1009.84 1009.62 1009.41 1009.18 1008.94
1011.61 1010.88 1010.10 1009.30 1008.53 1007.84 1007.26 1006.85 1006.63 1006.60 1006.77 1007.09 1007.55 1008.08 1008.65 1009.21 1009.73 1010.19 1010.59 1010.92 1011.21 1011.47 1011.71 1011.94 1012.15 1012.35 1012.50 1012.60 1012.63 1012.58 1012.45 1012.24 1011.98 1011.68 1011.35 1011.03 1010.72 1010.43 1010.14 1009.87 1009.58 1009.29 1008.98 1008.65
1010.31 1009.56 1008.79 1008.03 1007.33 1006.73 1006.26 1005.96 1005.84 1005.90 1006.15 1006.54 1007.06 1007.65 1008.27 1008.89 1009.47 1010.00 1010.47 1010.88 1011.24 1011.56 1011.86 1012.12 1012.36 1012.56 1012.72 1012.81 1012.83 1012.78 1012.65 1012.46 1012.22 1011.94 1011.65 1011.35 1011.05 1010.75 1010.44 1010.12 1009.77 1009.39 1008.99 1008.57
1008.86 1008.13 1007.41 1006.74 1006.14 1005.67 1005.34 1005.17 1005.17 1005.34 1005.68 1006.14 1006.71 1007.34 1008.00 1008.65 1009.27 1009.85 1010.37 1010.84 1011.25 1011.62 1011.96 1012.25 1012.51 1012.72 1012.87 1012.97 1012.99 1012.95 1012.84 1012.68 1012.48 1012.25 1012.00 1011.74 1011.47 1011.18 1010.86 1010.51 1010.11 1009.67 1009.19 1008.69
1007.41 1006.71 1006.05 1005.48 1005.01 1004.68 1004.49 1004.46 1004.60 1004.88 1005.30 1005.83 1006.45 1007.11 1007.79 1008.46 1009.11 1009.71 1010.27 1010.77 1011.23 1011.64 1012.01 1012.33 1012.60 1012.82 1012.98 1013.08 1013.11 1013.08 1013.00 1012.88 1012.72 1012.54 1012.35 1012.13 1011.90 1011.63 1011.32 1010.96 1010.53 1010.06 1009.53 1008.98
1006.08 1005.40 1004.80 1004.31 1003.95 1003.75 1003.70 1003.80 1004.05 1004.44 1004.94 1005.53 1006.19 1006.88 1007.58 1008.27 1008.93 1009.56 1010.15 1010.69 1011.18 1011.63 1012.03 1012.37 1012.66 1012.89 1013.06 1013.16 1013.19 1013.18 1013.12 1013.02 1012.90 1012.76 1012.61 1012.44 1012.24 1012.01 1011.72 1011.37 1010.95 1010.48 1009.94 1009.38
1004.96 1004.28 1003.71 1003.28 1003.00 1002.89 1002.94 1003.15 1003.49 1003.96 1004.53 1005.17 1005.87 1006.58 1007.31 1008.02 1008.71 1009.37 1009.99 1010.57 1011.11 1011.60 1012.03 1012.41 1012.71 1012.95 1013.12 1013.22 1013.25 1013.24 1013.18 1013.10 1013.00 1012.88 1012.76 1012.62 1012.46 1012.26 1012.01 1011.70 1011.32 1010.88 1010.38 1009.85
1004.12 1003.42 1002.84 1002.43 1002.18 1002.11 1002.22 1002.49 1002.90 1003.42 1004.04 1004.72 1005.45 1006.20 1006.95 1007.70 1008.43 1009.13 1009.80 1010.44 1011.02 1011.56 1012.03 1012.43 1012.76 1013.01 1013.18 1013.27 1013.29 1013.26 1013.20 1013.11 1013.01 1012.91 1012.80 1012.69 1012.56 1012.40 1012.19 1011.93 1011.60 1011.22 1010.79 1010.33
1003.59 1002.84 1002.23 1001.78 1001.52 1001.46 1001.57 1001.85 1002.28 1002.84 1003.48 1004.20 1004.96 1005.74 1006.54 1007.33 1008.11 1008.86 1009.59 1010.28 1010.92 1011.51 1012.02 1012.45 1012.80 1013.05 1013.21 1013.29 1013.30 1013.26 1013.18 1013.07 1012.96 1012.86 1012.76 1012.66 1012.55 1012.42 1012.26 1012.06 1011.80 1011.49 1011.14 1010.76
1003.37 1002.56 1001.89 1001.38 1001.07 1000.97 1001.05 1001.31 1001.73 1002.28 1002.93 1003.66 1004.45 1005.27 1006.11 1006.95 1007.78 1008.60 1009.39 1010.13 1010.82 1011.45 1011.99 1012.44 1012.80 1013.05 1013.21 1013.28 1013.27 1013.21 1013.11 1012.99 1012.87 1012.76 1012.66 1012.57 1012.48 1012.38 1012.26 1012.10 1011.91 1011.67 1011.39 1011.08
1003.44 1002.57 1001.83 1001.26 1000.88 1000.71 1000.73 1000.95 1001.33 1001.85 1002.49 1003.23 1004.03 1004.88 1005.75 1006.64 1007.52 1008.38 1009.21 1009.99 1010.72 1011.36 1011.92 1012.39 1012.74 1012.99 1013.14 1013.20 1013.18 1013.10 1013.00 1012.87 1012.75 1012.64 1012.54 1012.46 1012.39 1012.31 1012.21 1012.09 1011.93 1011.74 1011.51 1011.25
1003.76 1002.85 1002.06 1001.43 1000.98 1000.73 1000.69 1000.84 1001.16 1001.64 1002.26 1002.98 1003.78 1004.64 1005.54 1006.45 1007.35 1008.24 1009.09 1009.88 1010.61 1011.25 1011.81 1012.25 1012.60 1012.84 1012.97 1013.02 1013.01 1012.94 1012.84 1012.72 1012.61 1012.51 1012.43 1012.36 1012.29 1012.22 1012.13 1012.02 1011.87 1011.68 1011.47 1011.22
1004.27 1003.36 1002.55 1001.87 1001.36 1001.05 1000.93 1001.01 1001.28 1001.71 1002.28 1002.97 1003.76 1004.61 1005.50 1006.41 1007.31 1008.19 1009.02 1009.79 1010.49 1011.10 1011.62 1012.04 1012.35 1012.57 1012.70 1012.75 1012.75 1012.70 1012.62 1012.54 1012.46 1012.38 1012.32 1012.26 1012.20 1012.12 1012.02 1011.89 1011.72 1011.52 1011.27 1011.00
1004.91 1004.02 1003.21 1002.52 1001.98 1001.61 1001.44 1001.45 1001.65 1002.03 1002.55 1003.20 1003.95 1004.77 1005.63 1006.51 1007.37 1008.21 1008.99 1009.71 1010.35 1010.90 1011.36 1011.73 1012.01 1012.21 1012.33 1012.39 1012.41 1012.40 1012.37 1012.33 1012.29 1012.25 1012.21 1012.16 1012.09 1012.00 1011.87 1011.71 1011.50 1011.24 1010.95 1010.62
1005.58 1004.75 1003.97 1003.29 1002.74 1002.34 1002.12 1002.08 1002.22 1002.53 1003.00 1003.60 1004.30 1005.07 1005.88 1006.70 1007.50 1008.27 1008.98 1009.62 1010.18 1010.66 1011.05 1011.36 1011.60 1011.77 1011.89 1011.97 1012.03 1012.06 1012.08 1012.10 1012.10 1012.10 1012.08 1012.04 1011.96 1011.84 1011.68 1011.47 1011.20 1010.89 1010.53 1010.15
1006.19 1005.44 1004.71 1004.06 1003.51 1003.10 1002.85 1002.77 1002.86 1003.12 1003.53 1004.07 1004.71 1005.42 1006.16 1006.92 1007.65 1008.33 1008.96 1009.51 1009.98 1010.37 1010.69 1010.95 1011.15 1011.30 1011.43 1011.53 1011.62 1011.71 1011.78 1011.85 1011.90 1011.93 1011.93 1011.88 1011.79 1011.64 1011.43 1011.16 1010.84 1010.47 1010.07 1009.63
1006.65 1005.98 1005.32 1004.71 1004.18 1003.77 1003.50 1003.39 1003.44 1003.66 1004.01 1004.50 1005.08 1005.73 1006.41 1007.09 1007.75 1008.35 1008.89 1009.36 1009.75 1010.07 1010.33 1010.53 1010.71 1010.85 1010.99 1011.12 1011.24 1011.37 1011.49 1011.60 1011.68 1011.73 1011.73 1011.67 1011.56 1011.37 1011.12 1010.81 1010.45 1010.04 1009.60 1009.15
1006.90 1006.31 1005.72 1005.15 1004.65 1004.25 1003.98 1003.85 1003.88 1004.06 1004.38 1004.82 1005.35 1005.95 1006.57 1007.19 1007.78 1008.31 1008.78 1009.18 1009.51 1009.77 1009.98 1010.16 1010.31 1010.46 1010.60 1010.76 1010.91 1011.07 1011.22 1011.35 1011.45 1011.50 1011.49 1011.41 1011.27 1011.05 1010.77 1010.43 1010.04 1009.61 1009.17 1008.71
1006.90 1006.38 1005.84 1005.33 1004.86 1004.49 1004.22 1004.09 1004.11 1004.27 1004.57 1004.97 1005.47 1006.03 1006.61 1007.18 1007.72 1008.21 1008.63 1008.98 1009.26 1009.49 1009.68 1009.84 1010.00 1010.15 1010.30 1010.47 1010.65 1010.82 1010.98 1011.12 1011.21 1011.24 1011.21 1011.10 1010.92 1010.67 1010.36 1010.00 1009.61 1009.19 1008.76 1008.33
1006.63 1006.18 1005.70 1005.23 1004.81 1004.47 1004.23 1004.11 1004.13 1004.29 1004.58 1004.97 1005.45 1005.98 1006.53 1007.08 1007.59 1008.05 1008.44 1008.77 1009.04 1009.26 1009.44 1009.60 1009.76 1009.92 1010.09 1010.27 1010.45 1010.62 1010.78 1010.89 1010.96 1010.96 1010.89 1010.74 1010.52 1010.24 1009.92 1009.55 1009.16 1008.76 1008.36 1007.95
Thickness
5712 5720 5719 5719 5720 5719 5711 5703 5698 5710 5717 5728 5733 5736 5739 5739 5738 5737 5735 5732 5730 5726 5723 5721 5719 5716 5713 5710 5707 5703 5697 5692 5689 5686 5682 5678 5674 5671 5667 5664 5661 5657 5654 5651
5713 5723 5722 5720 5722 5721 5719 5717 5714 5718 5723 5739 5741 5739 5738 5738 5737 5735 5734 5733 5731 5729 5725 5722 5719 5716 5714 5710 5707 5703 5698 5693 5690 5686 5682 5678 5675 5671 5667 5664 5661 5657 5654 5651
5694 5709 5715 5706 5722 5723 5723 5728 5724 5718 5728 5738 5735 5736 5737 5738 5738 5736 5735 5734 5732 5728 5725 5723 5720 5717 5713 5710 5707 5701 5696 5692 5689 5685 5681 5678 5675 5671 5667 5664 5661 5657 5654 5651
5689 5699 5688 5716 5742 5741 5735 5737 5739 5740 5740 5740 5741 5742 5743 5742 5739 5736 5735 5733 5731 5728 5725 5723 5720 5717 5713 5709 5703 5698 5694 5691 5687 5684 5680 5677 5674 5670 5667 5664 5661 5658 5655 5652
5681 5683 5694 5722 5744 5743 5734 5734 5746 5744 5743 5743 5742 5738 5736 5743 5742 5738 5736 5733 5730 5728 5725 5721 5718 5714 5709 5704 5699 5695 5691 5688 5686 5682 5679 5676 5673 5670 5668 5664 5661 5659 5656 5653
5680 5684 5686 5719 5749 5757 5746 5732 5751 5749 5745 5740 5735 5720 5724 5740 5740 5738 5735 5732 5729 5725 5722 5717 5714 5710 5705 5699 5695 5691 5689 5686 5684 5681 5678 5675 5672 5670 5668 5665 5662 5660 5657 5655
5680 5681 5696 5732 5750 5751 5721 5728 5755 5753 5750 5743 5737 5737 5738 5739 5736 5734 5731 5729 5725 5720 5715 5711 5708 5705 5698 5693 5689 5688 5686 5684 5681 5678 5676 5674 5671 5669 5667 5665 5662 5659 5657 5656
5676 5677 5695 5743 5745 5737 5739 5754 5756 5753 5751 5747 5743 5740 5737 5734 5730 5728 5725 5722 5718 5713 5708 5705 5702 5699 5693 5688 5686 5684 5682 5679 5676 5674 5673 5672 5668 5666 5664 5662 5659 5657 5655 5654
5701 5710 5735 5745 5749 5755 5755 5753 5754 5751 5750 5747 5739 5735 5732 5728 5725 5722 5719 5715 5711 5706 5701 5697 5694 5692 5686 5683 5682 5679 5675 5672 5670 5669 5667 5666 5664 5662 5660 5658 5655 5654 5652 5650
5707 5721 5735 5744 5750 5755 5755 5754 5754 5752 5749 5745 5738 5732 5727 5723 5719 5715 5712 5708 5704 5699 5694 5689 5686 5684 5680 5678 5676 5673 5668 5665 5663 5662 5660 5660 5658 5657 5655 5653 5651 5649 5647 5645
5707 5721 5731 5739 5744 5749 5751 5752 5750 5747 5745 5742 5736 5729 5723 5718 5713 5709 5705 5701 5697 5692 5686 5681 5679 5676 5674 5671 5668 5664 5660 5658 5656 5655 5653 5652 5651 5650 5648 5647 5646 5643 5642 5640
5704 5721 5720 5730 5743 5744 5742 5743 5743 5740 5736 5735 5733 5726 5719 5713 5708 5703 5698 5693 5688 5683 5678 5674 5671 5668 5665 5663 5660 5656 5652 5650 5647 5646 5645 5643 5642 5641 5642 5641 5640 5639 5637 5635
5721 5730 5729 5735 5740 5741 5740 5740 5739 5737 5734 5728 5725 5721 5714 5706 5700 5696 5690 5685 5680 5675 5670 5665 5662 5659 5657 5654 5652 5648 5643 5641 5638 5637 5636 5635 5634 5632 5631 5632 5632 5631 5630 5629
5723 5724 5723 5729 5733 5737 5736 5735 5732 5729 5726 5723 5717 5712 5706 5699 5693 5687 5682 5677 5672 5667 5661 5657 5653 5650 5647 5645 5642 5638 5635 5633 5630 5627 5626 5625 5624 5623 5622 5620 5619 5619 5620 5619
5719 5721 5722 5727 5728 5728 5727 5724 5719 5715 5713 5710 5707 5703 5697 5691 5684 5678 5673 5668 5663 5657 5652 5648 5644 5640 5638 5635 5632 5628 5625 5623 5620 5618 5617 5616 5615 5614 5613 5611 5609 5608 5608 5608
5712 5714 5714 5715 5717 5717 5716 5714 5711 5708 5705 5701 5697 5693 5688 5681 5674 5668 5662 5658 5652 5645 5641 5637 5633 5630 5628 5625 5621 5618 5615 5616 5613 5609 5607 5605 5604 5602 5601 5600 5598 5597 5596 5595
5693 5696 5699 5701 5705 5707 5709 5711 5709 5704 5698 5693 5688 5682 5676 5669 5661 5655 5650 5645 5641 5635 5631 5627 5623 5621 5618 5614 5611 5607 5604 5603 5603 5599 5596 5594 5592 5591 5589 5587 5586 5584 5583 5583
5688 5694 5697 5699 5701 5700 5700 5699 5697 5693 5688 5683 5677 5671 5664 5658 5651 5644 5638 5633 5628 5622 5618 5616 5613 5610 5607 5603 5600 5596 5593 5591 5589 5587 5585 5583 5581 5580 5578 5576 5574 5573 5571 5570
5676 5683 5688 5691 5694 5693 5692 5689 5686 5682 5677 5672 5666 5659 5653 5646 5640 5633 5627 5621 5616 5610 5606 5605 5604 5598 5595 5592 5590 5586 5583 5581 5579 5576 5574 5573 5570 5568 5566 5564 5563 5561 5560 5558
5660 5667 5673 5677 5680 5679 5678 5676 5673 5668 5664 5659 5652 5644 5638 5632 5627 5621 5614 5608 5604 5600 5596 5593 5590 5586 5583 5581 5579 5575 5572 5570 5568 5565 5563 5561 5558 5556 5554 5553 5551 5550 5548 5546
5638 5646 5652 5656 5658 5660 5661 5660 5657 5653 5648 5644 5639 5633 5625 5618 5613 5608 5601 5593 5590 5588 5585 5583 5578 5574 5571 5569 5568 5564 5561 5559 5557 5554 5552 5549 5547 5545 5543 5541 5539 5537 5535 5533
5615 5622 5628 5633 5635 5636 5638 5639 5638 5635 5631 5627 5622 5616 5610 5603 5597 5592 5588 5584 5579 5577 5572 5569 5565 5564 5561 5559 5555 5553 5550 5548 5546 5543 5541 5539 5536 5534 5532 5530 5527 5525 5523 5519
5591 5599 5605 5609 5611 5612 5613 5615 5616 5616 5613 5610 5606 5601 5596 5590 5585 5579 5572 5569 5567 5565 5560 5556 5555 5554 5552 5547 5544 5541 5539 5537 5535 5532 5530 5528 5525 5523 5521 5519 5516 5513 5510 5507
5572 5578 5584 5587 5590 5590 5590 5590 5592 5593 5592 5590 5588 5584 5580 5573 5567 5565 5563 5560 5556 5553 5547 5545 5544 5543 5541 5535 5532 5530 5527 5526 5524 5522 5520 5517 5515 5512 5510 5507 5504 5501 5498 5495
5555 5560 5565 5567 5569 5570 5570 5571 5571 5570 5570 5569 5567 5566 5564 5561 5556 5551 5548 5546 5544 5541 5536 5535 5535 5532 5528 5524 5521 5519 5517 5515 5514 5512 5509 5507 5504 5502 5499 5496 5492 5489 5485 5482
5539 5544 5548 5552 5554 5554 5554 5554 5553 5552 5552 5551 5549 5548 5547 5545 5543 5539 5535 5533 5531 5529 5525 5522 5520 5519 5516 5514 5511 5509 5507 5505 5503 5501 5499 5496 5494 5491 5488 5484 5481 5477 5473 5469
5524 5529 5532 5534 5536 5538 5539 5540 5539 5538 5538 5538 5535 5534 5533 5531 5528 5526 5523 5520 5517 5515 5513 5511 5509 5507 5505 5503 5501 5500 5498 5495 5493 5491 5489 5486 5483 5480 5477 5474 5470 5466 5462 5457